Regional Weather Roundup
Issued by NWS

Home | Current Version | Previous Version | Text Only | Print | Product List | Glossary Off
Versions: 1 2 3 4 5 6 7 8 9 10 11 12 13 14 15 16 17 18 19 20 21 22 23 24 25 26 27 28 29 30 31 32 33 34 35 36 37 38 39 40 41 42 43 44 45 46 47 48 49 50

000
ASUS43 KMKX 200500
RWRWI

WISCONSIN REGIONAL WEATHER ROUNDUP
NATIONAL WEATHER SERVICE MILWAUKEE/SULLIVAN WI
1100 PM CST SUN FEB 19 2017

NOTE: "FAIR" INDICATES FEW OR NO CLOUDS BELOW 12,000 FEET WITH NO
SIGNIFICANT WEATHER AND/OR OBSTRUCTIONS TO VISIBILITY.

WIZ001-002-006>008-014>016-023>028-200600-
NORTHWEST WISCONSIN

CITY           SKY/WX    TMP DP  RH WIND       PRES   REMARKS
SUPERIOR ARPT  CLOUDY    35  33  93 E13G18    29.98F WCI  26
ASHLAND        MOCLDY    34  31  88 N6        29.99S WCI  29
HAYWARD        CLOUDY    50  31  48 SE10      29.96R
SIREN          CLOUDY    50  32  50 SE12      29.90F
CUMBERLAND     CLOUDY    43  32  65 SE8       29.93F
RICE LAKE      CLOUDY    46  32  58 SE10      29.95F
CHETEK         CLOUDY    46  32  60 E10       29.96R
LADYSMITH      CLOUDY    48  34  57 SE9       30.00S
EAU CLAIRE     NOT AVBL
MENOMONIE      CLOUDY    45  34  66 SE7       29.95S
NEW RICHMOND   MOCLDY    48  35  60 SE8       29.91R
OSCEOLA        PTCLDY    48  36  62 SE7       29.92F
$$

WIZ003>005-009-010-017-018-200600-
NORTH CENTRAL WISCONSIN

CITY           SKY/WX    TMP DP  RH WIND       PRES   REMARKS
MANITOWISH WTR PTCLDY    42  29  59 SE7       30.03S
ARBOR VITAE    PTCLDY    44  31  60 SE8       30.04S
WOODRUFF       PTCLDY    44  31  60 SE8       30.04S
RHINELANDER    CLOUDY    39  31  72 E9        30.07R WCI  33
EAGLE RIVER    CLOUDY    39  28  64 SE5       30.06S
LAND O LAKES   PTCLDY    40  31  67 SE7       30.08S
PHILLIPS       CLOUDY    44  32  63 SE5       30.01S
TOMAHAWK       CLOUDY    42  31  65 CALM      30.06R
MEDFORD        MOCLDY    45  33  63 SE9       30.03R
MERRILL        NOT AVBL
$$

WIZ029-030-035-036-043>047-200600-
CENTRAL WISCONSIN

CITY           SKY/WX    TMP DP  RH WIND       PRES   REMARKS
WAUSAU         PTCLDY    41  33  73 E8        30.06R
MOSINEE        PTCLDY    43  32  65 E9        30.07S
MARSHFIELD     PTCLDY    44  33  65 E8        30.03S
STEVENS POINT  MOCLDY    40  33  75 E6        30.07S
WAUPACA        CLOUDY    39  32  74 CALM      30.10R
WAUTOMA        CLOUDY    41  33  73 E5        30.09R
WISC RAPIDS    PTCLDY    44  35  70 E8        30.06S
CAMP DOUGLAS   NOT AVBL
$$

WIZ011>013-019>022-031-037>040-048>050-200600-
NORTHEAST WISCONSIN

CITY           SKY/WX    TMP DP  RH WIND       PRES   REMARKS
ANTIGO         CLOUDY    36  31  85 SE7       30.09R WCI  30
SHAWANO        PTCLDY    37  32  83 NE6       30.12R WCI  32
OCONTO         CLOUDY    29  27  92 CALM      30.13S
STURGEON BAY   CLOUDY    37  33  85 SE7       30.15R WCI  32
GREEN BAY      CLOUDY    36  32  85 E5        30.13R WCI  32
MANITOWOC      NOT AVBL
APPLETON       PTCLDY    37  28  70 E7        30.09S WCI  32
CLINTONVILLE   CLOUDY    36  30  80 E3        30.11S
OSHKOSH        CLOUDY    38  30  73 SE5       30.10R WCI  34
$$

WIZ032>034-041-042-053>061-200600-
SOUTHWEST WISCONSIN

CITY           SKY/WX    TMP DP  RH WIND       PRES   REMARKS
LA CROSSE      CLOUDY    51  37  58 SE7       29.98R
SPARTA         CLOUDY    47  38  69 E7        30.01S
VIROQUA        CLOUDY    49  37  61 CALM      30.00S
BOSCOBEL       CLOUDY    48  36  63 CALM      30.01F
PRAIRIE DU CHI PTCLDY    51  35  54 E5        30.00R
PLATTEVILLE    CLOUDY    47  37  66 SE12      30.02F
$$

WIZ056-057-062-063-064-067-068-200600-
SOUTH CENTRAL WISCONSIN

CITY           SKY/WX    TMP DP  RH WIND       PRES   REMARKS
REEDSBURG      CLOUDY    48  38  67 E5        30.04S
BARABOO/DELLS  CLOUDY    50  36  59 SE5       30.05R
LONE ROCK      NOT AVBL
MINERAL POINT  CLOUDY    52  36  54 SE8       30.03F
MADISON        CLOUDY    47  34  60 SE3       30.06S
MIDDLETON      CLOUDY    40  34  81 CALM      30.07R
WATERTOWN      CLOUDY    41  32  70 E6        30.09R
MONROE         PTCLDY    48  37  66 SE10      30.06S
JANESVILLE     CLOUDY    41  34  75 E5        30.08S
$$

WIZ051-052-058>065-066-070>072-200600-
SOUTHEAST WISCONSIN

CITY           SKY/WX    TMP DP  RH WIND       PRES   REMARKS
MILWAUKEE      CLOUDY    39  32  76 CALM      30.13R
WAUKESHA         N/A     36  30  80 CALM      30.12S
MILWAUKEE/TIMM CLOUDY    37  30  75 CALM      30.13R
RACINE         CLOUDY    38  32  79 CALM      30.13S
KENOSHA        CLOUDY    35  31  85 E3        30.12R
FOND DU LAC    CLOUDY    39  29  67 SE10      30.10S WCI  32
SHEBOYGAN      CLOUDY    31  28  89 CALM      30.13R
WEST BEND      PTCLDY    32  30  93 CALM      30.12R
JUNEAU         CLOUDY    40  31  70 E9        30.10R WCI  34
$$

LSZ147-162-200600-
LAKE SUPERIOR

STATION/POSITION TIME  TEMP    WIND        PRES    WAVE
                       AIR SEA DIR/SP/G            HT/PER
                 (UTC) (F)     (DEG/KT/KT) (MB)    (FT/S)
DEVILS ISLAND    0400   36      80/ 14/ 15 1017.1R
PORT WING        0440   34      40/  8/ 12 1015.6R
SAXON HARBOR     0440   30     210/  1/  2 1015.6S
$$

LMZ867-665-643>646-200600-
LAKE MICHIGAN

STATION/POSITION TIME  TEMP    WIND        PRES    WAVE
                       AIR SEA DIR/SP/G            HT/PER
                 (UTC) (F)     (DEG/KT/KT) (MB)    (FT/S)
CHAMBERS ISLAND  0440   33      CALM  /  1 1020.3S
NORTHPORT PIER   0440   37     140/  4/  5 1021.3R
SISTER BAY       0435   39     130/  9/ 11   N/A
ALGOMA LAKESHORE 0425             CALM       N/A
KEWAUNEE LAKESHO 0430   35      CALM  /  1 1020.1R
SHEBOYGAN LAKESH 0400   38        CALM     1020.4R
PORT WASHINGTON  0430   37     310/  1/  2 1021.0S
MILWAUKEE LAKESH 0430   39      30/  5/  5   N/A
KENOSHA   LAKESH 0400   37        CALM     1019.6
$$

TC  - TEMPERATURE IN CELSIUS
VSB - VISIBILITY IN STATUTE MILES
WCI - WIND CHILL INDEX
HX  - HEAT INDEX





USA.gov is the U.S. government's official web portal to all federal, state and local government web resources and services.